This is the latest recevied weather packets stored in our database for station/object K4IR. If no packets are shown the sender has not sent any weather packets the latest 10 day(s).
| Time | Temp. | Humidity | Pressure | Rain* | Wind** | Luminosity | Snow |
|---|---|---|---|---|---|---|---|
| 1787859367 | 28.89° C | 82% | 1015.6 hPa | 0 mm | - | 210 W/m² | - |
| 1787858764 | 28.33° C | 84% | 1015.7 hPa | 0 mm | - | 278 W/m² | - |
| 1787858159 | 29.44° C | 79% | 1015.7 hPa | 0 mm | - | 156 W/m² | - |
| 1787857557 | 28.89° C | 81% | 1015.8 hPa | 0 mm | - | 738 W/m² | - |
| 1787856955 | 30° C | 79% | 1015.9 hPa | 0 mm | - | 729 W/m² | - |
| 1787856351 | 28.89° C | 80% | 1015.9 hPa | 0 mm | - | 792 W/m² | - |
| 1787855746 | 28.89° C | 80% | 1015.9 hPa | 0 mm | - | 463 W/m² | - |
| 1787855143 | 28.33° C | 82% | 1016.1 hPa | 0 mm | - | 719 W/m² | - |
| 1787854537 | 28.33° C | 83% | 1016.4 hPa | 0 mm | - | 842 W/m² | - |
| 1787853938 | 27.22° C | 87% | 1016.6 hPa | 0 mm | - | 412 W/m² | - |
| 1787853337 | 27.22° C | 88% | 1016.7 hPa | 0 mm | - | 277 W/m² | - |
| 1787852732 | 26.67° C | 89% | 1017.2 hPa | 0 mm | - | 265 W/m² | - |
| 1787852131 | 26.11° C | 92% | 1017.3 hPa | 0 mm | - | 201 W/m² | - |
| 1787851526 | 26.11° C | 91% | 1017.4 hPa | 0 mm | - | 187 W/m² | - |
| 1787850922 | 26.11° C | 92% | 1017 hPa | 0 mm | - | 285 W/m² | - |
| 1787850319 | 26.11° C | 94% | 1016.9 hPa | 0 mm | - | 264 W/m² | - |
| 1787849714 | 26.67° C | 95% | 1017.3 hPa | 0 mm | - | 280 W/m² | - |
| 1787849113 | 26.11° C | 95% | 1017.1 hPa | 0 mm | - | 262 W/m² | - |
| 1787848508 | 26.67° C | 96% | 1017.5 hPa | 0 mm | - | 296 W/m² | - |
| 1787847902 | 26.11° C | 95% | 1017.3 hPa | 0.51 mm | - | 325 W/m² | - |
| 1787847298 | 26.67° C | 94% | 1017.3 hPa | 2.29 mm | - | 211 W/m² | - |
| 1787846694 | 26.67° C | 93% | 1017.4 hPa | 1.78 mm | - | 192 W/m² | - |
| 1787846091 | 26.67° C | 89% | 1017.3 hPa | 0.51 mm | - | 109 W/m² | - |
| 1787845487 | 27.78° C | 85% | 1017.7 hPa | 0 mm | - | 80 W/m² | - |
| 1787844885 | 28.33° C | 83% | 1017.6 hPa | 0 mm | - | 121 W/m² | - |
* Rain latest hour (hover to see other rain measurements)
** Current wind speed in m/s (hover to see current wind gust speed)